Location: Newark
(35.8833°N, 14.5000°E)
Time: 11:09:39
(UTC+00:00)

Altair - Pass Details

Date: 24 November 2019
Orbit: 1502 x 1682 km, 47.2° (Epoch: 05 December)

Event Time Altitude Azimuth Distance (km) Brightness Sun altitude
Rises 06:07:00 0° 303° (WNW) 4,639 9.3 2.8°
Reaches altitude 10° 06:10:01 10° 305° (NW) 3,664 8.9 3.4°
Maximum altitude 06:19:16 75° 31° (NNE) 1,581 7.8 5.0°
Drops below altitude 10° 06:28:46 10° 116° (ESE) 3,765 12.5 6.7°
Sets 06:31:54 0° 118° (ESE) 4,773 12.7 7.2°
